Weather History for KVGT - December, 2012

Change the Weather History Date:

Sunday, December 16, 2012

  Actual Average Record
Temperature  
Mean Temperature 42 °F -  
Max Temperature 48 °F 59 °F 71 °F (1998)
Min Temperature 35 °F 35 °F 15 °F (1951)
Degree Days  
Heating Degree Days 24    
Moisture  
Dew Point 33 °F    
Average Humidity 70    
Maximum Humidity 82    
Minimum Humidity 52    
Precipitation  
Precipitation 0.00 in - - ()
Sea Level Pressure  
Sea Level Pressure 30.14 in    
Wind  
Wind Speed 3 mph (NE)    
Max Wind Speed 7 mph    
Max Gust Speed -    
Visibility 10 miles    
Events      
Averages and records for this station are not official NWS values.
T = Trace of Precipitation, MM = Missing Value Source: NWS Daily Summary

Daily Weather History Graph

Daily Weather History Graph

Search for Another Location

Airport or City:

Trip Planner

Search our weather history database for the weather conditions in past years. The results will help you decide how hot, cold, wet, or windy it might be!

Date:

Astronomy

Dec. 16, 2012 Rise Set
Actual Time 6:45 AM PST 4:27 PM PST
Civil Twilight 6:16 AM PST 4:56 PM PST
Nautical Twilight 5:44 AM PST 5:28 PM PST
Astronomical Twilight 5:13 AM PST 6:00 PM PST
Moon 9:27 AM PST (12/16) 8:40 PM PST (12/16)
Length of Visible Light 10h 39m
Length of Day
9h 42m
Waxing Crescent, 17% of the Moon is Illuminated
Dec 16
Waxing Crescent
Dec 19
First Quarter
Dec 28
Full
Jan 4
Last Quarter
Jan 11
New

Hourly Weather History & Observations

Time (PST) Temp. Windchill Dew Point Humidity Pressure Visibility Wind Dir Wind Speed Gust Speed Precip Events Conditions
12:53 AM 37.9 °F 35.5 °F 32.0 °F 79% 30.06 in 10.0 mi North 3.5 mph - N/A   Clear
1:53 AM 37.0 °F - 30.9 °F 79% 30.07 in 10.0 mi Calm Calm - N/A   Clear
2:53 AM 36.0 °F 33.3 °F 30.9 °F 82% 30.07 in 10.0 mi NNW 3.5 mph - N/A   Clear
3:53 AM 35.1 °F 31.0 °F 30.0 °F 82% 30.09 in 10.0 mi NNW 4.6 mph - N/A   Clear
4:53 AM 35.1 °F - 30.0 °F 82% 30.08 in 10.0 mi Calm Calm - N/A   Clear
5:53 AM 36.0 °F 30.3 °F 28.9 °F 76% 30.12 in 10.0 mi North 6.9 mph - N/A   Clear
6:53 AM 37.0 °F 33.3 °F 28.0 °F 70% 30.15 in 10.0 mi North 4.6 mph - N/A   Clear
7:53 AM 37.9 °F - 30.0 °F 73% 30.17 in 10.0 mi Calm Calm - N/A   Clear
9:53 AM 43.0 °F 39.5 °F 35.1 °F 74% 30.19 in 10.0 mi ENE 5.8 mph - N/A   Clear
10:53 AM 44.1 °F 42.5 °F 34.0 °F 68% 30.19 in 10.0 mi East 3.5 mph - N/A   Clear
11:53 AM 46.0 °F 44.8 °F 33.1 °F 61% 30.16 in 10.0 mi Variable 3.5 mph - N/A   Clear
12:53 PM 46.9 °F - 32.0 °F 56% 30.14 in 10.0 mi ESE 3.5 mph - N/A   Clear
1:53 PM 48.0 °F - 30.9 °F 52% 30.12 in 10.0 mi East 6.9 mph - N/A   Clear
2:53 PM 48.0 °F - 30.9 °F 52% 30.12 in 10.0 mi East 5.8 mph - N/A   Clear
3:53 PM 48.0 °F - 32.0 °F 54% 30.13 in 10.0 mi East 4.6 mph - N/A   Mostly Cloudy
4:53 PM 46.9 °F - 33.1 °F 59% 30.14 in 10.0 mi ENE 5.8 mph - N/A   Mostly Cloudy
5:53 PM 46.0 °F 43.1 °F 34.0 °F 63% 30.15 in 10.0 mi ENE 5.8 mph - N/A   Clear
6:53 PM 44.1 °F 42.5 °F 34.0 °F 68% 30.16 in 10.0 mi NNE 3.5 mph - N/A   Clear
7:53 PM 42.1 °F - 35.1 °F 76% 30.17 in 10.0 mi Calm Calm - N/A   Scattered Clouds
8:53 PM 42.1 °F 40.2 °F 35.1 °F 76% 30.18 in 10.0 mi WNW 3.5 mph - N/A   Partly Cloudy
9:53 PM 43.0 °F - 36.0 °F 76% 30.19 in 10.0 mi Calm Calm - N/A   Overcast
10:53 PM 45.0 °F - 36.0 °F 71% 30.19 in 10.0 mi Calm Calm - N/A   Overcast
11:53 PM 44.1 °F - 37.0 °F 76% 30.17 in 10.0 mi Calm Calm - N/A   Overcast